User: anonymous   Login
Location: Góry Miechowskie
(50.3599°N, 20.1803°E)
Time: 07:31:07
(UTC+00:00)
Language:

Courier 1B - Orbit

View from above orbital plane
View from above orbital plane
View from above satellite
View from above satellite

Ground track
Ground track

The orbit data is extracted from the following two-line orbital elements,

1    58U 60013A   24262.80224379  .00000126  00000-0  63005-4 0  9991
2    58  28.3271 128.7640 0164828 338.2594  21.1020 13.46385204148778
Epoch (UTC): 18 September 2024 19:15:13
Eccentricity: 0.0164828
inclination: 28.3271°
perigee height: 962 km
apogee height: 1208 km
right ascension of ascending node: 128.7640°
argument of perigee: 338.2594°
revolutions per day: 13.46385204
mean anomaly at epoch: 21.1020°
orbit number at epoch: 14877

The dashed part of the orbit path shows where the satellite is in the earth's shadow,  

DLR